TimePDT,TemperatureF,Dew PointF,Humidity,Sea Level PressureIn,VisibilityMPH,Wind Direction,Wind SpeedMPH,Gust SpeedMPH,PrecipitationIn,Events,Conditions,WindDirDegrees,DateUTC
12:15 AM,48.2,42.8,82,30.08,10.0,Calm,Calm,-,N/A,,Clear,0,2013-10-14 07:15:00
12:35 AM,46.4,41.0,81,30.08,10.0,Calm,Calm,-,N/A,,Clear,0,2013-10-14 07:35:00
12:55 AM,46.4,41.0,81,30.08,10.0,NNE,3.5,-,N/A,,Clear,20,2013-10-14 07:55:00
1:15 AM,46.4,37.4,71,30.08,10.0,Calm,Calm,-,N/A,,Clear,0,2013-10-14 08:15:00
1:35 AM,46.4,42.8,87,30.08,10.0,South,3.5,-,N/A,,Clear,170,2013-10-14 08:35:00
1:55 AM,41.0,39.2,93,30.08,10.0,Calm,Calm,-,N/A,,Clear,0,2013-10-14 08:55:00
2:15 AM,41.0,39.2,93,30.08,10.0,Calm,Calm,-,N/A,,Clear,0,2013-10-14 09:15:00
2:35 AM,44.6,41.0,87,30.08,10.0,Calm,Calm,-,N/A,,Clear,0,2013-10-14 09:35:00
2:55 AM,42.8,41.0,93,30.08,10.0,Calm,Calm,-,N/A,,Clear,0,2013-10-14 09:55:00
3:15 AM,44.6,39.2,81,30.08,10.0,Calm,Calm,-,N/A,,Clear,0,2013-10-14 10:15:00
3:35 AM,44.6,39.2,81,30.08,10.0,Calm,Calm,-,N/A,,Clear,0,2013-10-14 10:35:00
3:55 AM,44.6,39.2,81,30.08,10.0,Calm,Calm,-,N/A,,Clear,0,2013-10-14 10:55:00
4:15 AM,44.6,41.0,87,30.08,10.0,Calm,Calm,-,N/A,,Clear,0,2013-10-14 11:15:00
4:35 AM,44.6,41.0,87,30.09,10.0,Calm,Calm,-,N/A,,Clear,0,2013-10-14 11:35:00
4:55 AM,44.6,41.0,87,30.09,10.0,Calm,Calm,-,N/A,,Clear,0,2013-10-14 11:55:00
5:15 AM,44.6,41.0,87,30.09,10.0,Calm,Calm,-,N/A,,Clear,0,2013-10-14 12:15:00
5:35 AM,42.8,41.0,93,30.09,10.0,Calm,Calm,-,N/A,,Clear,0,2013-10-14 12:35:00
5:55 AM,41.0,39.2,93,30.10,10.0,Calm,Calm,-,N/A,,Clear,0,2013-10-14 12:55:00
6:15 AM,42.8,39.2,87,30.10,10.0,Calm,Calm,-,N/A,,Clear,0,2013-10-14 13:15:00
6:35 AM,42.8,41.0,93,30.11,10.0,Calm,Calm,-,N/A,,Clear,0,2013-10-14 13:35:00
6:55 AM,42.8,41.0,93,30.11,10.0,Calm,Calm,-,N/A,,Clear,0,2013-10-14 13:55:00
7:15 AM,42.8,41.0,93,30.11,10.0,Calm,Calm,-,N/A,,Clear,0,2013-10-14 14:15:00
7:35 AM,41.0,41.0,100,30.11,10.0,Calm,Calm,-,N/A,,Clear,0,2013-10-14 14:35:00
7:55 AM,39.2,39.2,100,30.12,10.0,Calm,Calm,-,N/A,,Clear,0,2013-10-14 14:55:00
8:15 AM,41.0,41.0,100,30.12,10.0,Calm,Calm,-,N/A,,Clear,0,2013-10-14 15:15:00
8:35 AM,46.4,44.6,93,30.13,10.0,Calm,Calm,-,N/A,,Clear,0,2013-10-14 15:35:00
8:55 AM,48.2,44.6,87,30.14,10.0,Calm,Calm,-,N/A,,Clear,0,2013-10-14 15:55:00
9:15 AM,51.8,44.6,76,30.14,10.0,Calm,Calm,-,N/A,,Clear,0,2013-10-14 16:15:00
9:35 AM,55.4,44.6,67,30.13,10.0,Calm,Calm,-,N/A,,Clear,0,2013-10-14 16:35:00
9:55 AM,57.2,44.6,63,30.13,10.0,Calm,Calm,-,N/A,,Clear,0,2013-10-14 16:55:00
10:15 AM,59.0,42.8,55,30.13,10.0,Calm,Calm,-,N/A,,Clear,0,2013-10-14 17:15:00
10:35 AM,64.4,41.0,42,30.13,10.0,Calm,Calm,-,N/A,,Clear,0,2013-10-14 17:35:00
10:55 AM,66.2,41.0,40,30.13,10.0,ESE,3.5,-,N/A,,Clear,120,2013-10-14 17:55:00
11:15 AM,68.0,39.2,35,30.12,10.0,SSE,3.5,-,N/A,,Clear,150,2013-10-14 18:15:00
11:35 AM,68.0,39.2,35,30.12,10.0,ESE,5.8,-,N/A,,Clear,120,2013-10-14 18:35:00
11:55 AM,69.8,37.4,31,30.12,10.0,SE,6.9,-,N/A,,Clear,130,2013-10-14 18:55:00
12:15 PM,71.6,37.4,29,30.11,10.0,SE,6.9,-,N/A,,Clear,130,2013-10-14 19:15:00
12:35 PM,71.6,37.4,29,30.11,10.0,SE,5.8,-,N/A,,Clear,130,2013-10-14 19:35:00
12:55 PM,71.6,37.4,29,30.10,10.0,SE,5.8,-,N/A,Rain,Light Rain,140,2013-10-14 19:55:00
1:15 PM,73.4,37.4,27,30.09,10.0,SE,6.9,-,N/A,Rain,Light Rain,130,2013-10-14 20:15:00
1:35 PM,73.4,35.6,25,30.08,10.0,SSE,4.6,-,N/A,,Clear,150,2013-10-14 20:35:00
1:55 PM,75.2,37.4,25,30.07,10.0,SSE,5.8,-,N/A,,Clear,150,2013-10-14 20:55:00
2:15 PM,75.2,37.4,25,30.06,10.0,SSE,5.8,-,N/A,,Clear,160,2013-10-14 21:15:00
2:35 PM,75.2,35.6,24,30.05,10.0,SSE,3.5,-,N/A,,Clear,160,2013-10-14 21:35:00
2:55 PM,77.0,35.6,22,30.04,10.0,SSE,5.8,-,N/A,,Clear,150,2013-10-14 21:55:00
3:15 PM,77.0,35.6,22,30.04,10.0,SE,5.8,-,N/A,,Clear,130,2013-10-14 22:15:00
3:35 PM,77.0,35.6,22,30.03,10.0,ESE,3.5,-,N/A,,Clear,120,2013-10-14 22:35:00
3:55 PM,77.0,37.4,24,30.03,10.0,ESE,5.8,-,N/A,,Clear,120,2013-10-14 22:55:00
4:15 PM,77.0,37.4,24,30.02,10.0,SE,5.8,-,N/A,,Clear,130,2013-10-14 23:15:00
4:35 PM,77.0,37.4,24,30.01,10.0,ESE,5.8,-,N/A,,Clear,120,2013-10-14 23:35:00
4:55 PM,77.0,37.4,24,30.01,10.0,North,3.5,-,N/A,,Clear,360,2013-10-14 23:55:00
5:15 PM,77.0,35.6,22,30.02,10.0,NW,3.5,-,N/A,,Clear,320,2013-10-15 00:15:00
5:35 PM,75.2,35.6,24,30.01,10.0,NNW,3.5,-,N/A,,Clear,330,2013-10-15 00:35:00
5:55 PM,71.6,35.6,27,30.01,10.0,NNW,5.8,-,N/A,,Clear,340,2013-10-15 00:55:00
6:15 PM,66.2,33.8,30,30.02,10.0,NNW,3.5,-,N/A,,Clear,340,2013-10-15 01:15:00
6:35 PM,64.4,35.6,34,30.02,10.0,Calm,Calm,-,N/A,,Clear,0,2013-10-15 01:35:00
6:55 PM,62.6,33.8,34,30.02,10.0,Calm,Calm,-,N/A,,Clear,0,2013-10-15 01:55:00
7:15 PM,60.8,35.6,39,30.02,10.0,North,3.5,-,N/A,,Clear,360,2013-10-15 02:15:00
7:35 PM,60.8,33.8,36,30.03,10.0,Calm,Calm,-,N/A,,Clear,0,2013-10-15 02:35:00
7:55 PM,59.0,35.6,42,30.03,10.0,NE,4.6,-,N/A,,Clear,40,2013-10-15 02:55:00
8:15 PM,55.4,35.6,47,30.03,10.0,ENE,3.5,-,N/A,,Clear,60,2013-10-15 03:15:00
8:35 PM,55.4,37.4,51,30.03,10.0,NNE,4.6,-,N/A,,Clear,30,2013-10-15 03:35:00
8:55 PM,55.4,35.6,47,30.04,10.0,Calm,Calm,-,N/A,,Clear,0,2013-10-15 03:55:00
9:15 PM,53.6,35.6,51,30.04,10.0,NNE,5.8,-,N/A,,Clear,20,2013-10-15 04:15:00
9:35 PM,53.6,37.4,54,30.04,10.0,NNE,6.9,-,N/A,,Clear,20,2013-10-15 04:35:00
9:55 PM,51.8,37.4,58,30.05,10.0,Calm,Calm,-,N/A,,Clear,0,2013-10-15 04:55:00
10:15 PM,53.6,37.4,54,30.05,10.0,Calm,Calm,-,N/A,,Clear,0,2013-10-15 05:15:00
10:35 PM,50.0,37.4,62,30.05,10.0,NNW,3.5,-,N/A,,Clear,340,2013-10-15 05:35:00
10:55 PM,50.0,35.6,58,30.05,10.0,Calm,Calm,-,N/A,,Clear,0,2013-10-15 05:55:00
11:15 PM,51.8,35.6,54,30.05,10.0,Calm,Calm,-,N/A,,Clear,0,2013-10-15 06:15:00
11:35 PM,51.8,37.4,58,30.04,10.0,Calm,Calm,-,N/A,,Clear,0,2013-10-15 06:35:00
11:55 PM,50.0,37.4,62,30.04,10.0,Calm,Calm,-,N/A,,Clear,0,2013-10-15 06:55:00